Time,TemperatureF,DewpointF,PressureIn,WindDirection,WindDirectionDegrees,WindSpeedMPH,WindSpeedGustMPH,Humidity,HourlyPrecipIn,Conditions,Clouds,dailyrainin,SoftwareType,DateUTC
2013-03-11 00:00:00,55.8,31.2,30.02,SE,135,5.2,7.2,39,0.00,SKC,,0.00,WeatherDisplay:10.37,2013-03-11 04:00:00,
2013-03-11 00:01:00,55.8,31.2,30.02,South,180,5.7,6.9,39,0.00,SKC,,0.00,WeatherDisplay:10.37,2013-03-11 04:01:00,
2013-03-11 00:05:00,55.8,31.2,30.02,SSE,158,4.1,5.9,39,0.00,SKC,,0.00,WeatherDisplay:10.37,2013-03-11 04:05:00,
2013-03-11 00:06:00,55.6,31.0,30.02,SSE,158,4.5,5.9,39,0.00,SKC,,0.00,WeatherDisplay:10.37,2013-03-11 04:06:00,
2013-03-11 00:11:00,55.6,31.0,30.02,SSE,158,5.2,8.1,39,0.00,CLR,,0.00,WeatherDisplay:10.37,2013-03-11 04:11:00,
2013-03-11 00:17:00,55.4,30.8,30.01,SSE,158,2.8,3.5,39,0.00,CLR,,0.00,WeatherDisplay:10.37,2013-03-11 04:17:00,
2013-03-11 00:23:00,55.2,30.7,30.01,South,180,2.4,3.5,39,0.00,CLR,,0.00,WeatherDisplay:10.37,2013-03-11 04:23:00,
2013-03-11 00:29:00,54.5,32.4,30.00,West,270,2.5,2.7,43,0.00,CLR,,0.00,WeatherDisplay:10.37,2013-03-11 04:29:00,
2013-03-11 00:35:00,54.3,31.1,30.00,NNW,338,2.8,4.6,41,0.00,CLR,,0.00,WeatherDisplay:10.37,2013-03-11 04:35:00,
2013-03-11 00:40:00,53.8,31.2,30.01,SE,135,2.1,2.7,42,0.00,CLR,SCT,0.00,WeatherDisplay:10.37,2013-03-11 04:40:00,
2013-03-11 00:46:00,53.8,31.2,30.01,South,180,2.3,2.7,42,0.00,CLR,SCT,0.00,WeatherDisplay:10.37,2013-03-11 04:46:00,
2013-03-11 00:52:00,54.0,30.8,30.00,SSE,158,3.3,5.3,41,0.00,CLR,SCT,0.00,WeatherDisplay:10.37,2013-03-11 04:52:00,
2013-03-11 00:58:00,54.1,30.9,30.00,SW,225,2.5,3.5,41,0.00,CLR,SCT,0.00,WeatherDisplay:10.37,2013-03-11 04:58:00,
2013-03-11 01:04:00,54.7,31.4,30.00,SSE,158,4.1,5.8,41,0.00,CLR,SCT,0.00,WeatherDisplay:10.37,2013-03-11 05:04:00,
2013-03-11 01:10:00,54.9,31.6,30.00,SSE,158,3.2,4.0,41,0.00,CLR,SCT,0.00,WeatherDisplay:10.37,2013-03-11 05:10:00,
2013-03-11 01:17:00,54.7,31.4,30.00,SSE,158,2.3,3.4,41,0.00,CLR,SCT,0.00,WeatherDisplay:10.37,2013-03-11 05:17:00,
2013-03-11 01:23:00,54.3,31.1,30.00,SSE,158,2.1,2.3,41,0.00,SCT,,0.00,WeatherDisplay:10.37,2013-03-11 05:23:00,
2013-03-11 01:29:00,54.1,31.5,30.00,SSE,158,1.6,2.3,42,0.00,CLR,SCT,0.00,WeatherDisplay:10.37,2013-03-11 05:29:00,
2013-03-11 01:35:00,54.3,31.1,30.00,SSE,158,2.0,3.5,41,0.00,-RA,SCT,0.00,WeatherDisplay:10.37,2013-03-11 05:35:00,
2013-03-11 01:40:00,54.1,31.5,29.99,SSE,158,0.8,2.3,42,0.00,-RA,SCT,0.00,WeatherDisplay:10.37,2013-03-11 05:40:00,
2013-03-11 01:47:00,54.7,30.8,29.99,SSW,202,2.3,2.7,40,0.00,CLR,SCT,0.00,WeatherDisplay:10.37,2013-03-11 05:47:00,
2013-03-11 01:53:00,55.2,31.3,29.99,SSE,158,3.4,4.6,40,0.00,CLR,SCT,0.00,WeatherDisplay:10.37,2013-03-11 05:53:00,
2013-03-11 01:59:00,55.8,31.2,29.99,SSE,158,3.6,6.9,39,0.00,CLR,SCT,0.00,WeatherDisplay:10.37,2013-03-11 05:59:00,
2013-03-11 02:05:00,55.9,31.3,29.99,SSE,158,5.8,8.1,39,0.00,CLR,SCT,0.00,WeatherDisplay:10.37,2013-03-11 06:05:00,
2013-03-11 02:11:00,56.1,30.8,29.99,South,180,4.2,8.1,38,0.00,CLR,SCT,0.00,WeatherDisplay:10.37,2013-03-11 06:11:00,
2013-03-11 02:17:00,55.9,30.6,29.98,South,180,3.1,4.6,38,0.00,CLR,SCT,0.00,WeatherDisplay:10.37,2013-03-11 06:17:00,
2013-03-11 02:23:00,56.1,30.8,29.98,SW,225,4.4,5.9,38,0.00,CLR,SCT,0.00,WeatherDisplay:10.37,2013-03-11 06:23:00,
2013-03-11 02:29:00,55.9,30.6,29.98,South,180,5.5,6.6,38,0.00,CLR,SCT,0.00,WeatherDisplay:10.37,2013-03-11 06:29:00,
2013-03-11 02:34:00,55.9,30.6,29.98,South,180,4.6,6.9,38,0.00,CLR,SCT,0.00,WeatherDisplay:10.37,2013-03-11 06:34:00,
2013-03-11 02:40:00,55.8,30.5,29.97,SSE,158,5.8,8.5,38,0.00,CLR,SCT,0.00,WeatherDisplay:10.37,2013-03-11 06:40:00,
2013-03-11 02:46:00,55.8,31.2,29.97,SSE,158,5.2,5.9,39,0.00,CLR,SCT,0.00,WeatherDisplay:10.37,2013-03-11 06:46:00,
2013-03-11 02:52:00,55.9,30.6,29.96,South,180,3.8,4.6,38,0.00,CLR,SCT,0.00,WeatherDisplay:10.37,2013-03-11 06:52:00,
2013-03-11 02:58:00,56.1,30.8,29.96,South,180,3.9,4.6,38,0.00,CLR,SCT,0.00,WeatherDisplay:10.37,2013-03-11 06:58:00,
2013-03-11 03:04:00,56.1,30.8,29.96,SSE,158,5.0,6.9,38,0.00,CLR,SCT,0.00,WeatherDisplay:10.37,2013-03-11 07:04:00,
2013-03-11 03:10:00,56.5,30.5,29.96,SSW,202,3.8,6.9,37,0.00,CLR,SCT,0.00,WeatherDisplay:10.37,2013-03-11 07:10:00,
2013-03-11 03:16:00,56.5,30.5,29.96,SSE,158,4.8,6.9,37,0.00,CLR,SCT,0.00,WeatherDisplay:10.37,2013-03-11 07:16:00,
2013-03-11 03:22:00,56.7,30.7,29.96,SSE,158,5.7,7.2,37,0.00,CLR,SCT,0.00,WeatherDisplay:10.37,2013-03-11 07:22:00,
2013-03-11 03:28:00,56.8,30.8,29.96,SSE,158,4.6,6.6,37,0.00,CLR,SCT,0.00,WeatherDisplay:10.37,2013-03-11 07:28:00,
2013-03-11 03:34:00,56.8,30.8,29.96,SSE,158,3.9,8.1,37,0.00,CLR,SCT,0.00,WeatherDisplay:10.37,2013-03-11 07:34:00,
2013-03-11 03:39:00,57.0,31.0,29.95,SSE,158,7.8,8.1,37,0.00,CLR,SCT,0.00,WeatherDisplay:10.37,2013-03-11 07:39:00,
2013-03-11 03:45:00,57.0,30.3,29.95,SSE,158,7.0,9.2,36,0.00,CLR,SCT,0.00,WeatherDisplay:10.37,2013-03-11 07:45:00,
2013-03-11 03:51:00,57.0,30.3,29.95,South,180,4.7,6.6,36,0.00,CLR,SCT,0.00,WeatherDisplay:10.37,2013-03-11 07:51:00,
2013-03-11 03:56:00,56.8,30.1,29.95,SSE,158,4.9,5.9,36,0.00,CLR,SCT,0.00,WeatherDisplay:10.37,2013-03-11 07:56:00,
2013-03-11 04:02:00,57.4,30.6,29.93,South,180,6.4,8.5,36,0.00,CLR,SCT,0.00,WeatherDisplay:10.37,2013-03-11 08:02:00,
2013-03-11 04:08:00,57.2,30.5,29.93,SSE,158,7.1,11.1,36,0.00,CLR,SCT,0.00,WeatherDisplay:10.37,2013-03-11 08:08:00,
2013-03-11 04:14:00,57.2,30.5,29.93,SSE,158,3.9,8.1,36,0.00,CLR,SCT,0.00,WeatherDisplay:10.37,2013-03-11 08:14:00,
2013-03-11 04:20:00,57.0,30.3,29.93,South,180,4.3,5.3,36,0.00,CLR,SCT,0.00,WeatherDisplay:10.37,2013-03-11 08:20:00,
2013-03-11 04:26:00,56.7,30.7,29.93,South,180,4.5,5.9,37,0.00,CLR,SCT,0.00,WeatherDisplay:10.37,2013-03-11 08:26:00,
2013-03-11 04:32:00,56.7,30.7,29.92,WSW,248,3.6,5.8,37,0.00,CLR,SCT,0.00,WeatherDisplay:10.37,2013-03-11 08:32:00,
2013-03-11 04:37:00,56.3,30.3,29.92,South,180,2.4,3.5,37,0.00,CLR,SCT,0.00,WeatherDisplay:10.37,2013-03-11 08:37:00,
2013-03-11 04:43:00,55.9,30.0,29.92,SSE,158,0.1,1.4,37,0.00,CLR,SCT,0.00,WeatherDisplay:10.37,2013-03-11 08:43:00,
2013-03-11 04:49:00,55.6,30.4,29.92,SSE,158,2.9,3.5,38,0.00,CLR,SCT,0.00,WeatherDisplay:10.37,2013-03-11 08:49:00,
2013-03-11 04:55:00,55.8,30.5,29.92,South,180,2.9,5.8,38,0.00,CLR,SCT,0.00,WeatherDisplay:10.37,2013-03-11 08:55:00,
2013-03-11 05:01:00,56.3,30.3,29.92,South,180,6.2,8.1,37,0.00,CLR,SCT,0.00,WeatherDisplay:10.37,2013-03-11 09:01:00,
2013-03-11 05:07:00,56.5,29.8,29.91,SSW,202,3.9,5.8,36,0.00,CLR,SCT,0.00,WeatherDisplay:10.37,2013-03-11 09:07:00,
2013-03-11 05:13:00,56.5,29.8,29.91,South,180,6.6,9.1,36,0.00,CLR,SCT,0.00,WeatherDisplay:10.37,2013-03-11 09:13:00,
2013-03-11 05:19:00,55.9,30.0,29.91,SW,225,3.1,4.6,37,0.00,CLR,SCT,0.00,WeatherDisplay:10.37,2013-03-11 09:19:00,
2013-03-11 05:25:00,55.8,29.9,29.91,SSE,158,3.9,5.8,37,0.00,CLR,SCT,0.00,WeatherDisplay:10.37,2013-03-11 09:25:00,
2013-03-11 05:31:00,55.9,30.0,29.91,SSE,158,4.8,9.2,37,0.00,CLR,SCT,0.00,WeatherDisplay:10.37,2013-03-11 09:31:00,
2013-03-11 05:36:00,55.8,29.9,29.91,SSE,158,3.7,8.1,37,0.00,CLR,SCT,0.00,WeatherDisplay:10.37,2013-03-11 09:36:00,
2013-03-11 05:42:00,55.6,29.7,29.92,SSW,202,3.8,4.6,37,0.00,CLR,SCT,0.00,WeatherDisplay:10.37,2013-03-11 09:42:00,
2013-03-11 05:48:00,55.2,30.7,29.92,SSE,158,3.0,3.5,39,0.00,CLR,SCT,0.00,WeatherDisplay:10.37,2013-03-11 09:48:00,
2013-03-11 05:54:00,55.0,30.5,29.92,SW,225,1.5,2.3,39,0.00,CLR,SCT,0.00,WeatherDisplay:10.37,2013-03-11 09:54:00,
2013-03-11 06:00:00,54.5,30.0,29.92,South,180,0.0,0.0,39,0.00,CLR,SCT,0.00,WeatherDisplay:10.37,2013-03-11 10:00:00,
2013-03-11 06:06:00,54.0,30.8,29.92,SSW,202,0.0,0.0,41,0.00,CLR,SCT,0.00,WeatherDisplay:10.37,2013-03-11 10:06:00,
2013-03-11 06:12:00,53.2,31.3,29.92,SSW,202,0.0,2.7,43,0.00,CLR,SCT,0.00,WeatherDisplay:10.37,2013-03-11 10:12:00,
2013-03-11 06:18:00,52.7,31.4,29.92,SSW,202,0.0,0.0,44,0.00,CLR,SCT,0.00,WeatherDisplay:10.37,2013-03-11 10:18:00,
2013-03-11 06:24:00,52.2,33.1,29.92,SSW,202,0.0,0.0,48,0.00,CLR,SCT,0.00,WeatherDisplay:10.37,2013-03-11 10:24:00,
2013-03-11 06:30:00,51.8,31.1,29.93,SSW,202,0.0,0.0,45,0.00,CLR,SCT,0.00,WeatherDisplay:10.37,2013-03-11 10:30:00,
2013-03-11 06:35:00,52.0,30.7,29.93,SSW,202,0.0,0.0,44,0.00,CLR,SCT,0.00,WeatherDisplay:10.37,2013-03-11 10:35:00,
2013-03-11 06:41:00,51.4,32.3,29.93,SSW,202,0.6,2.3,48,0.00,CLR,SCT,0.00,WeatherDisplay:10.37,2013-03-11 10:41:00,
2013-03-11 06:47:00,50.7,32.7,29.93,SSW,202,0.0,1.2,50,0.00,CLR,SCT,0.00,WeatherDisplay:10.37,2013-03-11 10:47:00,
2013-03-11 06:53:00,50.0,33.1,29.93,SSW,202,0.0,0.0,52,0.00,CLR,SCT,0.00,WeatherDisplay:10.37,2013-03-11 10:53:00,
2013-03-11 07:02:00,50.0,33.5,29.93,SSW,202,0.0,0.0,53,0.00,CLR,SCT,0.00,WeatherDisplay:10.37,2013-03-11 11:02:00,
2013-03-11 07:07:00,49.3,33.8,29.93,SSW,202,0.0,0.0,55,0.00,CLR,SCT,0.00,WeatherDisplay:10.37,2013-03-11 11:07:00,
2013-03-11 07:13:00,48.7,34.1,29.93,SSW,202,0.0,0.0,57,0.00,CLR,SCT,0.00,WeatherDisplay:10.37,2013-03-11 11:13:00,
2013-03-11 07:19:00,48.4,35.1,29.93,SSW,202,0.0,0.0,60,0.00,CLR,SCT,0.00,WeatherDisplay:10.37,2013-03-11 11:19:00,
2013-03-11 07:25:00,48.0,34.8,29.93,SSW,202,0.0,0.0,60,0.00,CLR,SCT,0.00,WeatherDisplay:10.37,2013-03-11 11:25:00,
2013-03-11 07:31:00,48.0,34.3,29.93,SSW,202,0.0,0.0,59,0.00,CLR,SCT,0.00,WeatherDisplay:10.37,2013-03-11 11:31:00,
2013-03-11 07:37:00,47.8,34.2,29.93,SSW,202,0.0,0.0,59,0.00,CLR,SCT,0.00,WeatherDisplay:10.37,2013-03-11 11:37:00,
2013-03-11 07:43:00,47.5,34.7,29.93,SSW,202,0.0,0.0,61,0.00,CLR,SCT,0.00,WeatherDisplay:10.37,2013-03-11 11:43:00,
2013-03-11 07:49:00,47.3,35.3,29.93,SSW,202,0.0,0.0,63,0.00,CLR,SCT,0.00,WeatherDisplay:10.37,2013-03-11 11:49:00,
2013-03-11 07:55:00,47.3,34.9,29.94,SSW,202,0.0,0.0,62,0.00,CLR,SCT,0.00,WeatherDisplay:10.37,2013-03-11 11:55:00,
2013-03-11 08:01:00,46.9,35.0,29.94,SSW,202,0.6,2.3,63,0.00,CLR,SCT,0.00,WeatherDisplay:10.37,2013-03-11 12:01:00,
2013-03-11 08:06:00,46.9,35.0,29.94,SSW,202,0.0,0.0,63,0.00,CLR,SCT,0.00,WeatherDisplay:10.37,2013-03-11 12:06:00,
2013-03-11 08:12:00,46.9,35.7,29.94,SSW,202,0.0,0.0,65,0.00,CLR,SCT,0.00,WeatherDisplay:10.37,2013-03-11 12:12:00,
2013-03-11 08:18:00,46.8,34.9,29.93,SSW,202,0.0,0.0,63,0.00,CLR,SCT,0.00,WeatherDisplay:10.37,2013-03-11 12:18:00,
2013-03-11 08:24:00,46.9,35.4,29.93,SSW,202,0.0,0.0,64,0.00,CLR,SCT,0.00,WeatherDisplay:10.37,2013-03-11 12:24:00,
2013-03-11 08:30:00,47.1,35.5,29.94,SSW,202,0.0,0.0,64,0.00,CLR,SCT,0.00,WeatherDisplay:10.37,2013-03-11 12:30:00,
2013-03-11 08:37:00,47.5,35.5,29.94,SSW,202,0.0,0.0,63,0.00,CLR,SCT,0.00,WeatherDisplay:10.37,2013-03-11 12:37:00,
2013-03-11 08:43:00,47.7,36.1,29.94,SSW,202,0.0,0.0,64,0.00,CLR,SCT,0.00,WeatherDisplay:10.37,2013-03-11 12:43:00,
2013-03-11 08:49:00,47.8,35.8,29.94,SSW,202,0.0,0.0,63,0.00,CLR,SCT,0.00,WeatherDisplay:10.37,2013-03-11 12:49:00,
2013-03-11 08:55:00,48.0,35.2,29.94,SSW,202,0.0,0.0,61,0.00,CLR,SCT,0.00,WeatherDisplay:10.37,2013-03-11 12:55:00,
2013-03-11 09:01:00,48.6,35.7,29.94,SSW,202,0.0,0.0,61,0.00,CLR,SCT,0.00,WeatherDisplay:10.37,2013-03-11 13:01:00,
2013-03-11 09:07:00,49.1,35.4,29.94,SSW,202,0.0,0.0,59,0.00,CLR,SCT,0.00,WeatherDisplay:10.37,2013-03-11 13:07:00,
2013-03-11 09:12:00,49.5,34.9,29.94,SSW,202,0.0,0.0,57,0.00,CLR,SCT,0.00,WeatherDisplay:10.37,2013-03-11 13:12:00,
2013-03-11 09:18:00,49.8,36.9,29.95,SSW,202,0.0,0.0,61,0.00,CLR,SCT,0.00,WeatherDisplay:10.37,2013-03-11 13:18:00,
2013-03-11 09:24:00,50.4,36.2,29.95,SSW,202,0.0,0.0,58,0.00,CLR,SCT,0.00,WeatherDisplay:10.37,2013-03-11 13:24:00,
2013-03-11 09:30:00,50.7,36.5,29.95,SSW,202,0.0,0.0,58,0.00,CLR,SCT,0.00,WeatherDisplay:10.37,2013-03-11 13:30:00,
2013-03-11 09:36:00,51.3,38.3,29.95,SSW,202,0.0,0.0,61,0.00,CLR,SCT,0.00,WeatherDisplay:10.37,2013-03-11 13:36:00,
2013-03-11 09:41:00,51.6,36.9,29.95,SSW,202,0.0,0.0,57,0.00,CLR,SCT,0.00,WeatherDisplay:10.37,2013-03-11 13:41:00,
2013-03-11 09:47:00,52.3,37.1,29.95,SSW,202,0.0,0.0,56,0.00,CLR,SCT,0.00,WeatherDisplay:10.37,2013-03-11 13:47:00,
2013-03-11 09:53:00,53.2,37.9,29.95,SSW,202,0.0,0.0,56,0.00,CLR,SCT,0.00,WeatherDisplay:10.37,2013-03-11 13:53:00,
2013-03-11 09:59:00,53.8,36.1,29.95,SSW,202,0.0,0.0,51,0.00,CLR,SCT,0.00,WeatherDisplay:10.37,2013-03-11 13:59:00,
2013-03-11 10:05:00,54.5,36.7,29.95,SSW,202,0.0,0.0,51,0.00,FEW,SCT,0.00,WeatherDisplay:10.37,2013-03-11 14:05:00,
2013-03-11 10:10:00,55.9,34.3,29.95,SSW,202,1.9,2.3,44,0.00,FEW,SCT,0.00,WeatherDisplay:10.37,2013-03-11 14:10:00,
2013-03-11 10:17:00,57.4,32.0,29.95,SSE,158,3.4,5.8,38,0.00,FEW,SCT,0.00,WeatherDisplay:10.37,2013-03-11 14:17:00,
2013-03-11 10:23:00,57.9,32.4,29.95,SSE,158,3.2,4.0,38,0.00,FEW,SCT,0.00,WeatherDisplay:10.37,2013-03-11 14:23:00,
2013-03-11 10:29:00,58.5,32.3,29.96,SSE,158,2.7,3.4,37,0.00,FEW,SCT,0.00,WeatherDisplay:10.37,2013-03-11 14:29:00,
2013-03-11 10:35:00,59.2,31.5,29.96,SSE,158,4.3,6.6,35,0.00,FEW,SCT,0.00,WeatherDisplay:10.37,2013-03-11 14:35:00,
2013-03-11 10:41:00,59.4,31.0,29.95,SE,135,4.8,6.9,34,0.00,FEW,SCT,0.00,WeatherDisplay:10.37,2013-03-11 14:41:00,
2013-03-11 10:47:00,59.7,31.3,29.95,SSE,158,4.0,6.9,34,0.00,FEW,SCT,0.00,WeatherDisplay:10.37,2013-03-11 14:47:00,
2013-03-11 10:52:00,59.9,30.7,29.94,SSW,202,3.8,6.9,33,0.00,FEW,SCT,0.00,WeatherDisplay:10.37,2013-03-11 14:52:00,
2013-03-11 10:57:00,60.4,30.3,29.94,SSE,167,3.0,7.0,32,0.00,BKN,SCT,0.00,WeatherDisplay:10.37,2013-03-11 14:57:00,
2013-03-11 11:03:00,60.6,30.6,29.94,South,180,4.1,5.8,32,0.00,BKN,SCT,0.00,WeatherDisplay:10.37,2013-03-11 15:03:00,
2013-03-11 11:08:00,61.0,30.9,29.94,South,180,4.3,5.9,32,0.00,BKN,SCT,0.00,WeatherDisplay:10.37,2013-03-11 15:08:00,
2013-03-11 11:14:00,61.2,31.1,29.94,South,180,5.0,7.2,32,0.00,BKN,SCT,0.00,WeatherDisplay:10.37,2013-03-11 15:14:00,
2013-03-11 11:20:00,61.3,31.2,29.94,SSW,202,4.1,5.8,32,0.00,BKN,SCT,0.00,WeatherDisplay:10.37,2013-03-11 15:20:00,
2013-03-11 11:26:00,61.9,31.7,29.93,South,180,5.8,6.9,32,0.00,BKN,SCT,0.00,WeatherDisplay:10.37,2013-03-11 15:26:00,
2013-03-11 11:32:00,61.9,30.9,29.93,SSE,158,6.7,9.2,31,0.00,BKN,SCT,0.00,WeatherDisplay:10.37,2013-03-11 15:32:00,
2013-03-11 11:38:00,62.1,31.9,29.93,South,180,6.0,6.9,32,0.00,BKN,SCT,0.00,WeatherDisplay:10.37,2013-03-11 15:38:00,
2013-03-11 11:44:00,62.6,32.3,29.93,SSE,158,5.3,6.9,32,0.00,BKN,SCT,0.00,WeatherDisplay:10.37,2013-03-11 15:44:00,
2013-03-11 11:50:00,62.2,31.2,29.92,SSE,158,6.1,7.2,31,0.00,BKN,SCT,0.00,WeatherDisplay:10.37,2013-03-11 15:50:00,
2013-03-11 11:56:00,62.4,30.5,29.92,WSW,248,7.5,11.7,30,0.00,BKN,SCT,0.00,WeatherDisplay:10.37,2013-03-11 15:56:00,
2013-03-11 12:02:00,62.8,31.7,29.91,SW,225,4.1,6.9,31,0.00,BKN,SCT,0.00,WeatherDisplay:10.37,2013-03-11 16:02:00,
2013-03-11 12:07:00,62.8,30.9,29.91,SE,135,3.9,8.1,30,0.00,BKN,SCT,0.00,WeatherDisplay:10.37,2013-03-11 16:07:00,
2013-03-11 12:13:00,62.6,30.7,29.91,WSW,248,3.9,4.6,30,0.00,BKN,SCT,0.00,WeatherDisplay:10.37,2013-03-11 16:13:00,
2013-03-11 12:19:00,63.0,31.9,29.90,SSW,202,3.9,6.9,31,0.00,BKN,SCT,0.00,WeatherDisplay:10.37,2013-03-11 16:19:00,
2013-03-11 12:25:00,62.6,31.5,29.90,SSE,158,4.8,9.2,31,0.00,BKN,SCT,0.00,WeatherDisplay:10.37,2013-03-11 16:25:00,
2013-03-11 12:31:00,62.6,30.7,29.90,South,180,9.3,12.7,30,0.00,BKN,SCT,0.00,WeatherDisplay:10.37,2013-03-11 16:31:00,
2013-03-11 12:37:00,62.8,31.7,29.90,SSE,158,5.2,7.8,31,0.00,BKN,SCT,0.00,WeatherDisplay:10.37,2013-03-11 16:37:00,
2013-03-11 12:42:00,62.8,30.9,29.89,South,180,6.6,8.5,30,0.00,BKN,SCT,0.00,WeatherDisplay:10.37,2013-03-11 16:42:00,
2013-03-11 12:48:00,62.8,30.9,29.89,SSW,202,7.8,11.1,30,0.00,BKN,SCT,0.00,WeatherDisplay:10.37,2013-03-11 16:48:00,
2013-03-11 12:54:00,62.4,30.5,29.90,SE,135,5.9,8.5,30,0.00,BKN,SCT,0.00,WeatherDisplay:10.37,2013-03-11 16:54:00,
2013-03-11 13:00:00,62.1,31.1,29.90,SSE,158,7.6,8.5,31,0.00,BKN,SCT,0.00,WeatherDisplay:10.37,2013-03-11 17:00:00,
2013-03-11 13:05:00,62.2,31.2,29.89,East,90,4.2,5.9,31,0.00,BKN,SCT,0.00,WeatherDisplay:10.37,2013-03-11 17:05:00,
2013-03-11 13:11:00,62.1,30.3,29.89,SE,135,6.7,8.5,30,0.00,BKN,SCT,0.00,WeatherDisplay:10.37,2013-03-11 17:11:00,
2013-03-11 13:17:00,61.5,30.6,29.88,SSE,158,4.5,6.6,31,0.00,BKN,SCT,0.00,WeatherDisplay:10.37,2013-03-11 17:17:00,
2013-03-11 13:23:00,61.7,31.5,29.88,SSE,158,3.8,5.8,32,0.00,BKN,SCT,0.00,WeatherDisplay:10.37,2013-03-11 17:23:00,
2013-03-11 13:29:00,61.7,30.7,29.87,South,180,5.7,8.1,31,0.00,BKN,SCT,0.00,WeatherDisplay:10.37,2013-03-11 17:29:00,
2013-03-11 13:35:00,61.5,31.3,29.87,South,180,4.8,8.1,32,0.00,BKN,SCT,0.00,WeatherDisplay:10.37,2013-03-11 17:35:00,
2013-03-11 13:41:00,61.5,30.6,29.88,ESE,112,4.5,5.9,31,0.00,BKN,SCT,0.00,WeatherDisplay:10.37,2013-03-11 17:41:00,
2013-03-11 13:47:00,61.3,30.4,29.88,East,90,8.6,9.8,31,0.00,BKN,SCT,0.00,WeatherDisplay:10.37,2013-03-11 17:47:00,
2013-03-11 13:53:00,62.2,31.2,29.85,SW,225,5.2,8.1,31,0.00,BKN,SCT,0.00,WeatherDisplay:10.37,2013-03-11 17:53:00,
2013-03-11 13:59:00,61.9,30.9,29.85,SSE,158,5.3,5.8,31,0.00,BKN,SCT,0.00,WeatherDisplay:10.37,2013-03-11 17:59:00,
2013-03-11 14:04:00,61.7,30.7,29.87,SSE,158,3.9,5.9,31,0.00,BKN,SCT,0.00,WeatherDisplay:10.37,2013-03-11 18:04:00,
2013-03-11 14:10:00,61.9,31.7,29.87,SSE,158,3.7,5.8,32,0.00,BKN,SCT,0.00,WeatherDisplay:10.37,2013-03-11 18:10:00,
2013-03-11 14:16:00,61.9,30.9,29.87,SSE,158,3.8,5.8,31,0.00,BKN,SCT,0.00,WeatherDisplay:10.37,2013-03-11 18:16:00,
2013-03-11 14:21:00,61.9,30.9,29.87,SE,135,4.6,5.9,31,0.00,BKN,SCT,0.00,WeatherDisplay:10.37,2013-03-11 18:21:00,
2013-03-11 14:27:00,61.9,31.7,29.84,SSW,202,3.1,5.8,32,0.00,BKN,SCT,0.00,WeatherDisplay:10.37,2013-03-11 18:27:00,
2013-03-11 14:33:00,61.9,30.9,29.84,SSE,158,7.5,11.5,31,0.00,BKN,SCT,0.00,WeatherDisplay:10.37,2013-03-11 18:33:00,
2013-03-11 14:39:00,61.3,30.4,29.83,South,180,6.3,11.5,31,0.00,BKN,SCT,0.00,WeatherDisplay:10.37,2013-03-11 18:39:00,
2013-03-11 14:45:00,61.3,30.4,29.83,SSW,202,5.2,7.2,31,0.00,BKN,SCT,0.00,WeatherDisplay:10.37,2013-03-11 18:45:00,
2013-03-11 14:53:00,61.3,29.6,29.83,South,180,5.3,9.2,30,0.00,BKN,SCT,0.00,WeatherDisplay:10.37,2013-03-11 18:53:00,
2013-03-11 14:59:00,61.2,30.3,29.83,SSE,158,4.0,5.3,31,0.00,BKN,SCT,0.00,WeatherDisplay:10.37,2013-03-11 18:59:00,
2013-03-11 15:04:00,61.0,30.9,29.84,SSW,202,5.6,7.8,32,0.00,BKN,SCT,0.00,WeatherDisplay:10.37,2013-03-11 19:04:00,
2013-03-11 15:10:00,60.6,30.6,29.84,SSE,158,3.9,6.9,32,0.00,BKN,SCT,0.00,WeatherDisplay:10.37,2013-03-11 19:10:00,
2013-03-11 15:16:00,60.4,30.4,29.84,South,180,5.3,6.9,32,0.00,BKN,SCT,0.00,WeatherDisplay:10.37,2013-03-11 19:16:00,
2013-03-11 15:22:00,60.3,31.8,29.84,SSE,158,4.5,5.8,34,0.00,OVC,SCT,0.00,WeatherDisplay:10.37,2013-03-11 19:22:00,
2013-03-11 15:28:00,60.6,32.1,29.84,SSW,202,5.3,5.8,34,0.00,OVC,SCT,0.00,WeatherDisplay:10.37,2013-03-11 19:28:00,
2013-03-11 15:34:00,60.6,31.3,29.84,SSE,158,5.4,6.6,33,0.00,OVC,SCT,0.00,WeatherDisplay:10.37,2013-03-11 19:34:00,
2013-03-11 15:40:00,60.8,32.2,29.83,SSE,158,3.4,4.6,34,0.00,OVC,SCT,0.00,WeatherDisplay:10.37,2013-03-11 19:40:00,
2013-03-11 15:46:00,61.2,32.6,29.83,SSE,158,5.1,6.6,34,0.00,OVC,SCT,0.00,WeatherDisplay:10.37,2013-03-11 19:46:00,
2013-03-11 15:52:00,60.4,32.6,29.82,SE,135,5.5,6.9,35,0.00,OVC,SCT,0.00,WeatherDisplay:10.37,2013-03-11 19:52:00,
2013-03-11 15:58:00,60.1,33.0,29.82,SSE,158,4.8,6.9,36,0.00,OVC,SCT,0.00,WeatherDisplay:10.37,2013-03-11 19:58:00,
2013-03-11 16:04:00,59.9,34.2,29.81,SSE,158,5.3,8.5,38,0.00,OVC,SCT,0.00,WeatherDisplay:10.37,2013-03-11 20:04:00,
2013-03-11 16:10:00,59.7,34.0,29.81,SW,225,8.3,11.7,38,0.00,OVC,SCT,0.00,WeatherDisplay:10.37,2013-03-11 20:10:00,
2013-03-11 16:15:00,59.7,34.0,29.80,South,180,8.6,11.5,38,0.00,OVC,SCT,0.00,WeatherDisplay:10.37,2013-03-11 20:15:00,
2013-03-11 16:21:00,59.5,34.5,29.80,NE,45,6.2,8.5,39,0.00,OVC,SCT,0.00,WeatherDisplay:10.37,2013-03-11 20:21:00,
2013-03-11 16:27:00,59.5,34.5,29.80,SE,135,7.6,11.7,39,0.00,OVC,SCT,0.00,WeatherDisplay:10.37,2013-03-11 20:27:00,
2013-03-11 16:33:00,59.5,35.1,29.80,SSE,158,8.6,11.1,40,0.00,OVC,SCT,0.00,WeatherDisplay:10.37,2013-03-11 20:33:00,
2013-03-11 16:39:00,59.7,35.3,29.79,SSW,202,4.9,11.5,40,0.00,OVC,SCT,0.00,WeatherDisplay:10.37,2013-03-11 20:39:00,
2013-03-11 16:44:00,59.7,35.9,29.79,ESE,112,5.6,8.1,41,0.00,OVC,SCT,0.00,WeatherDisplay:10.37,2013-03-11 20:44:00,
2013-03-11 16:50:00,59.7,36.6,29.79,SSE,158,7.1,11.5,42,0.00,OVC,SCT,0.00,WeatherDisplay:10.37,2013-03-11 20:50:00,
2013-03-11 16:56:00,59.5,37.0,29.77,SSE,158,11.3,12.7,43,0.00,OVC,SCT,0.00,WeatherDisplay:10.37,2013-03-11 20:56:00,
2013-03-11 17:02:00,59.4,37.5,29.76,South,180,5.7,16.1,44,0.00,OVC,SCT,0.00,WeatherDisplay:10.37,2013-03-11 21:02:00,
2013-03-11 17:08:00,59.4,37.5,29.76,WSW,248,6.5,10.4,44,0.00,OVC,SCT,0.00,WeatherDisplay:10.37,2013-03-11 21:08:00,
2013-03-11 17:13:00,59.4,38.0,29.76,ESE,112,6.1,8.1,45,0.00,OVC,SCT,0.00,WeatherDisplay:10.37,2013-03-11 21:13:00,
2013-03-11 17:19:00,59.4,38.6,29.76,SSE,158,9.1,11.5,46,0.00,OVC,SCT,0.00,WeatherDisplay:10.37,2013-03-11 21:19:00,
2013-03-11 17:25:00,59.4,39.1,29.77,South,180,8.7,10.4,47,0.00,OVC,SCT,0.00,WeatherDisplay:10.37,2013-03-11 21:25:00,
2013-03-11 17:31:00,59.2,39.5,29.77,East,90,9.9,13.0,48,0.00,OVC,SCT,0.00,WeatherDisplay:10.37,2013-03-11 21:31:00,
2013-03-11 17:37:00,58.8,39.7,29.77,South,180,7.1,9.2,49,0.00,OVC,SCT,0.00,WeatherDisplay:10.37,2013-03-11 21:37:00,
2013-03-11 17:43:00,58.8,39.7,29.77,South,180,5.6,8.1,49,0.00,OVC,SCT,0.00,WeatherDisplay:10.37,2013-03-11 21:43:00,
2013-03-11 17:49:00,58.6,40.0,29.77,SSE,158,5.5,10.4,50,0.00,OVC,SCT,0.00,WeatherDisplay:10.37,2013-03-11 21:49:00,
2013-03-11 17:55:00,58.6,40.0,29.75,ESE,112,9.1,11.5,50,0.00,OVC,SCT,0.00,WeatherDisplay:10.37,2013-03-11 21:55:00,
2013-03-11 18:01:00,58.6,40.0,29.75,SSE,158,9.8,16.1,50,0.00,OVC,SCT,0.00,WeatherDisplay:10.37,2013-03-11 22:01:00,
2013-03-11 18:07:00,58.6,40.0,29.75,SSW,202,11.9,16.2,50,0.00,OVC,SCT,0.00,WeatherDisplay:10.37,2013-03-11 22:07:00,
2013-03-11 18:12:00,58.6,40.0,29.75,East,90,8.5,8.5,50,0.00,OVC,SCT,0.00,WeatherDisplay:10.37,2013-03-11 22:12:00,
2013-03-11 18:18:00,58.5,40.4,29.75,SE,135,11.1,12.7,51,0.00,OVC,SCT,0.00,WeatherDisplay:10.37,2013-03-11 22:18:00,
2013-03-11 18:24:00,58.5,40.4,29.75,SSE,158,8.4,10.4,51,0.00,OVC,SCT,0.00,WeatherDisplay:10.37,2013-03-11 22:24:00,
2013-03-11 18:30:00,58.3,40.2,29.74,SSW,202,6.8,8.1,51,0.00,OVC,SCT,0.00,WeatherDisplay:10.37,2013-03-11 22:30:00,
2013-03-11 18:36:00,58.3,40.2,29.74,SSE,158,6.3,7.2,51,0.00,OVC,SCT,0.00,WeatherDisplay:10.37,2013-03-11 22:36:00,
2013-03-11 18:42:00,58.3,40.7,29.74,South,180,5.7,8.5,52,0.00,OVC,SCT,0.00,WeatherDisplay:10.37,2013-03-11 22:42:00,
2013-03-11 18:48:00,58.1,40.6,29.74,SSE,158,6.3,13.8,52,0.00,OVC,SCT,0.00,WeatherDisplay:10.37,2013-03-11 22:48:00,
2013-03-11 18:55:00,58.1,40.6,29.75,South,172,8.0,12.0,52,0.00,OVC,SCT,0.00,WeatherDisplay:10.37,2013-03-11 22:55:00,
2013-03-11 19:05:00,57.9,40.9,29.75,SSE,154,9.0,14.0,53,0.00,OVC,SCT,0.00,WeatherDisplay:10.37,2013-03-11 23:05:00,
2013-03-11 19:10:00,57.9,40.9,29.75,South,180,14.0,15.0,53,0.00,SCT,SCT,0.00,WeatherDisplay:10.37,2013-03-11 23:10:00,
2013-03-11 19:20:00,57.7,41.6,29.76,SSW,193,8.0,14.0,55,0.00,OVC,OVC,0.00,WeatherDisplay:10.37,2013-03-11 23:20:00,
2013-03-11 19:25:00,57.1,42.0,29.76,SSE,161,10.0,17.0,57,0.00,OVC,OVC,0.00,WeatherDisplay:10.37,2013-03-11 23:25:00,
2013-03-11 19:35:00,56.1,43.3,29.75,SSE,168,6.0,17.0,62,0.00,OVC,OVC,0.00,WeatherDisplay:10.37,2013-03-11 23:35:00,
2013-03-11 19:40:00,55.9,43.1,29.75,South,176,6.0,14.0,62,0.00,OVC,OVC,0.00,WeatherDisplay:10.37,2013-03-11 23:40:00,
2013-03-11 19:50:00,56.3,42.6,29.75,South,170,10.0,17.0,60,0.00,OVC,OVC,0.00,WeatherDisplay:10.37,2013-03-11 23:50:00,
2013-03-11 19:55:00,56.1,43.3,29.75,South,180,8.0,12.0,62,0.00,OVC,OVC,0.00,WeatherDisplay:10.37,2013-03-11 23:55:00,
2013-03-11 20:05:00,56.1,42.8,29.75,South,181,7.0,10.0,61,0.00,-RA,-RA,0.00,WeatherDisplay:10.37,2013-03-12 00:05:00,
2013-03-11 20:10:00,56.1,42.8,29.75,South,169,6.0,10.0,61,0.00,-RA,-RA,0.00,WeatherDisplay:10.37,2013-03-12 00:10:00,
2013-03-11 20:20:00,56.3,43.0,29.74,South,171,7.0,12.0,61,0.00,-RA,-RA,0.00,WeatherDisplay:10.37,2013-03-12 00:20:00,
2013-03-11 20:25:00,56.6,42.9,29.74,South,170,6.0,18.0,60,0.00,-RA,-RA,0.00,WeatherDisplay:10.37,2013-03-12 00:25:00,
2013-03-11 20:35:00,56.7,43.0,29.74,South,181,6.0,15.0,60,0.00,-RA,-RA,0.00,WeatherDisplay:10.37,2013-03-12 00:35:00,
2013-03-11 20:50:00,56.7,43.4,29.75,South,169,7.0,13.0,61,0.00,-RA,-RA,0.00,WeatherDisplay:10.37,2013-03-12 00:50:00,
2013-03-11 20:55:00,56.7,43.4,29.75,South,176,3.0,8.0,61,0.00,-RA,-RA,0.00,WeatherDisplay:10.37,2013-03-12 00:55:00,
2013-03-11 21:05:00,56.5,43.6,29.73,South,170,7.0,12.0,62,0.00,-RA,-RA,0.00,WeatherDisplay:10.37,2013-03-12 01:05:00,
2013-03-11 21:10:00,56.7,43.8,29.73,SSE,168,10.0,14.0,62,0.00,-RA,-RA,0.00,WeatherDisplay:10.37,2013-03-12 01:10:00,
2013-03-11 21:48:00,56.1,44.9,29.75,SE,143,8.0,16.0,66,0.00,OVC,OVC,0.00,WeatherDisplay:10.37,2013-03-12 01:48:00,
2013-03-11 21:53:00,56.1,44.9,29.74,SSE,158,6.1,8.1,66,0.00,OVC,,0.00,WeatherDisplay:10.37,2013-03-12 01:53:00,
2013-03-11 21:58:00,56.1,44.9,29.74,SW,225,10.3,14.3,66,0.00,OVC,,0.00,WeatherDisplay:10.37,2013-03-12 01:58:00,
2013-03-11 22:03:00,56.1,45.3,29.74,SW,225,6.2,8.1,67,0.00,OVC,,0.00,WeatherDisplay:10.37,2013-03-12 02:03:00,
2013-03-11 22:08:00,56.1,45.3,29.74,South,180,6.9,8.1,67,0.00,OVC,,0.01,WeatherDisplay:10.37,2013-03-12 02:08:00,
2013-03-11 22:13:00,56.1,45.7,29.75,South,180,7.8,18.4,68,0.01,-RA,,0.01,WeatherDisplay:10.37,2013-03-12 02:13:00,
2013-03-11 22:18:00,56.1,45.7,29.75,SSE,158,7.2,12.7,68,0.01,RA,,0.01,WeatherDisplay:10.37,2013-03-12 02:18:00,
2013-03-11 22:23:00,55.9,46.3,29.75,SE,135,7.2,10.6,70,0.01,OVC,,0.01,WeatherDisplay:10.37,2013-03-12 02:23:00,
2013-03-11 22:28:00,55.8,46.9,29.75,SSE,158,11.1,14.3,72,0.01,-RA,,0.01,WeatherDisplay:10.37,2013-03-12 02:28:00,
2013-03-11 22:33:00,55.0,47.2,29.75,SSW,202,8.3,9.2,75,0.01,-RA,,0.01,WeatherDisplay:10.37,2013-03-12 02:33:00,
2013-03-11 22:38:00,54.7,47.3,29.75,ESE,112,11.5,11.5,76,0.01,-RA,,0.01,WeatherDisplay:10.37,2013-03-12 02:38:00,
2013-03-11 22:43:00,54.3,47.6,29.75,SSW,202,5.9,8.1,78,0.01,-RA,,0.01,WeatherDisplay:10.37,2013-03-12 02:43:00,
2013-03-11 22:48:00,54.1,47.7,29.75,South,180,6.0,6.9,79,0.01,-RA,,0.02,WeatherDisplay:10.37,2013-03-12 02:48:00,
2013-03-11 22:53:00,53.6,47.9,29.76,SSW,202,5.5,6.1,81,0.02,-RA,,0.02,WeatherDisplay:10.37,2013-03-12 02:53:00,
2013-03-11 22:58:00,53.6,48.2,29.76,WSW,248,6.9,6.9,82,0.03,-RA,,0.03,WeatherDisplay:10.37,2013-03-12 02:58:00,
2013-03-11 23:03:00,52.7,48.9,29.77,SSE,158,4.2,8.1,87,0.05,RA,,0.05,WeatherDisplay:10.37,2013-03-12 03:03:00,
2013-03-11 23:08:00,52.3,49.2,29.77,SSE,158,5.0,6.1,89,0.06,RA,,0.07,WeatherDisplay:10.37,2013-03-12 03:08:00,
2013-03-11 23:13:00,52.2,49.4,29.76,SSE,158,3.0,5.8,90,0.06,RA,,0.08,WeatherDisplay:10.37,2013-03-12 03:13:00,
2013-03-11 23:18:00,52.0,49.5,29.76,SSE,158,2.6,3.5,91,0.07,RA,,0.08,WeatherDisplay:10.37,2013-03-12 03:18:00,
2013-03-11 23:23:00,51.8,49.5,29.76,SSE,158,2.4,3.5,92,0.08,RA,,0.09,WeatherDisplay:10.37,2013-03-12 03:23:00,
2013-03-11 23:28:00,51.6,49.6,29.77,SSE,158,3.2,3.9,93,0.09,RA,,0.11,WeatherDisplay:10.37,2013-03-12 03:28:00,
2013-03-11 23:33:00,51.6,49.6,29.77,SSE,158,3.3,3.9,93,0.10,RA,,0.11,WeatherDisplay:10.37,2013-03-12 03:33:00,
2013-03-11 23:38:00,51.6,49.9,29.77,SSE,158,2.4,3.5,94,0.11,RA,,0.12,WeatherDisplay:10.37,2013-03-12 03:38:00,
2013-03-11 23:43:00,51.4,50.0,29.77,SSE,158,2.5,3.1,95,0.12,RA,,0.13,WeatherDisplay:10.37,2013-03-12 03:43:00,
2013-03-11 23:48:00,51.3,50.2,29.77,SSE,158,3.2,3.9,96,0.13,RA,,0.14,WeatherDisplay:10.37,2013-03-12 03:48:00,
2013-03-11 23:53:00,51.3,50.2,29.76,SSE,158,2.2,3.5,96,0.13,RA,,0.15,WeatherDisplay:10.37,2013-03-12 03:53:00,
2013-03-11 23:58:00,51.3,50.5,29.76,SSE,158,2.5,4.6,97,0.12,RA,,0.15,WeatherDisplay:10.37,2013-03-12 03:58:00,